Weather History for Smyrna, TN

Change the Weather History Date:

Saturday, February 2, 2013

  Actual Average Record
Temperature  
Mean Temperature 32 °F -  
Max Temperature 43 °F 46 °F 69 °F (2003)
Min Temperature 21 °F 32 °F 16 °F (2007)
Degree Days  
Heating Degree Days 33    
Moisture  
Dew Point 25 °F    
Average Humidity 84    
Maximum Humidity 100    
Minimum Humidity 58    
Precipitation  
Precipitation 0.02 in - - ()
Sea Level Pressure  
Sea Level Pressure 30.27 in    
Wind  
Wind Speed 4 mph (SSW)    
Max Wind Speed 13 mph    
Max Gust Speed -    
Visibility 7 miles    
Events Snow    
Averages and records for this station are not official NWS values.
T = Trace of Precipitation, MM = Missing Value Source: NWS Daily Summary

Daily Weather History Graph

Daily Weather History Graph

Search for Another Location

Airport:

Trip Planner

Search our weather history database for the weather conditions in past years. The results will help you decide how hot, cold, wet, or windy it might be!

Date:

Astronomy

Feb. 02, 2013 Rise Set
Actual Time 6:45 AM CST 5:14 PM CST
Civil Twilight 6:18 AM CST 5:41 PM CST
Nautical Twilight 5:48 AM CST 6:11 PM CST
Astronomical Twilight 5:18 AM CST 6:42 PM CST
Moon No Moon Rise 10:10 AM CST
Length of Visible Light 11h 22m
Length of Day
10h 28m
Waning Gibbous, 59% of the Moon is Illuminated
Feb 2
Waning Gibbous
Feb 3
Last Quarter
Feb 10
New
Feb 17
First Quarter
Feb 25
Full

Hourly Weather History & Observations

Time (CST) Temp. Windchill Dew Point Humidity Pressure Visibility Wind Dir Wind Speed Gust Speed Precip Events Conditions
12:56 AM 23.0 °F - 18.1 °F 82% 30.40 in 10.0 mi Calm Calm - N/A   Clear
1:56 AM 22.1 °F - 18.1 °F 85% 30.39 in 10.0 mi Calm Calm - N/A   Clear
2:56 AM 21.0 °F - 18.1 °F 89% 30.38 in 10.0 mi Calm Calm - N/A   Clear
3:56 AM 21.0 °F - 18.1 °F 89% 30.36 in 10.0 mi Calm Calm - N/A   Clear
4:56 AM 23.0 °F - 19.0 °F 85% 30.35 in 10.0 mi Calm Calm - N/A   Mostly Cloudy
5:56 AM 25.2 °F - 20.1 °F 81% 30.36 in 10.0 mi Calm Calm - N/A   Scattered Clouds
6:42 AM 26.6 °F 17.5 °F 19.4 °F 74% 30.31 in 10.0 mi SSW 9.2 mph - N/A   Mostly Cloudy
6:56 AM 26.1 °F 19.4 °F 22.1 °F 85% 30.36 in 3.0 mi South 5.8 mph - 0.00 in Snow Light Snow
7:06 AM 26.6 °F 19.1 °F 21.2 °F 80% 30.31 in 0.5 mi South 6.9 mph - 0.00 in Snow Snow
7:14 AM 24.8 °F 17.9 °F 23.0 °F 93% 30.31 in 0.1 mi South 5.8 mph - 0.00 in Snow Snow
7:20 AM 24.8 °F - 23.0 °F 93% - 0.5 mi North - - 0.00 in Snow Snow
7:29 AM 24.8 °F 17.9 °F 23.0 °F 93% 30.32 in 0.8 mi South 5.8 mph - 0.00 in Snow Light Snow
7:46 AM 24.8 °F 19.1 °F 24.8 °F 100% 30.30 in 0.5 mi SSE 4.6 mph - 0.01 in Snow Snow
7:56 AM 26.1 °F 18.4 °F 25.2 °F 96% 30.35 in 1.0 mi South 6.9 mph - 0.01 in Snow Light Snow
8:21 AM 26.6 °F 19.1 °F 24.8 °F 93% 30.29 in 3.0 mi South 6.9 mph - 0.00 in Snow Light Snow
8:56 AM 27.1 °F 18.9 °F 25.2 °F 92% 30.33 in 5.0 mi South 8.1 mph - 0.00 in   Overcast
8:58 AM 26.6 °F 18.2 °F 24.8 °F 93% 30.28 in 3.0 mi South 8.1 mph - 0.00 in Snow Light Snow
9:09 AM 28.4 °F 20.4 °F 24.8 °F 86% 30.27 in 3.0 mi South 8.1 mph - 0.00 in Snow Light Snow
9:16 AM 26.6 °F 15.7 °F 24.8 °F 93% 30.26 in 3.0 mi South 12.7 mph - 0.00 in Snow Light Snow
9:56 AM 29.1 °F 20.6 °F 26.1 °F 88% 30.29 in 10.0 mi South 9.2 mph - 0.00 in   Mostly Cloudy
10:56 AM 32.9 °F 24.1 °F 28.0 °F 82% 30.26 in 10.0 mi SW 11.5 mph - 0.01 in   Clear
11:56 AM 37.9 °F 32.1 °F 31.1 °F 76% 30.22 in 10.0 mi South 8.1 mph - N/A   Clear
12:56 PM 43.0 °F 38.2 °F 31.1 °F 63% 30.18 in 10.0 mi WSW 8.1 mph - N/A   Clear
1:56 PM 41.9 °F 35.9 °F 30.0 °F 63% 30.17 in 10.0 mi West 10.4 mph - N/A   Clear
2:56 PM 41.9 °F 38.2 °F 32.0 °F 68% 30.15 in 10.0 mi West 5.8 mph - 0.00 in   Mostly Cloudy
3:56 PM 43.9 °F 41.3 °F 30.0 °F 58% 30.14 in 10.0 mi WNW 4.6 mph - N/A   Overcast
4:56 PM 43.0 °F - 31.1 °F 63% 30.13 in 10.0 mi Calm Calm - N/A   Overcast
6:56 PM 34.0 °F 28.0 °F 32.0 °F 92% 30.20 in 10.0 mi NNW 6.9 mph - N/A   Partly Cloudy
7:56 PM 32.9 °F - 30.0 °F 89% 30.21 in 10.0 mi Calm Calm - N/A   Clear
8:56 PM 31.1 °F - 29.1 °F 92% 30.20 in 10.0 mi Calm Calm - N/A   Partly Cloudy
9:56 PM 31.1 °F - 30.0 °F 96% 30.20 in 10.0 mi Calm Calm - N/A   Overcast
10:56 PM 34.9 °F - 30.0 °F 82% 30.19 in 10.0 mi Calm Calm - N/A   Overcast
11:56 PM 34.0 °F - 30.0 °F 85% 30.17 in 10.0 mi Calm Calm - N/A   Overcast